This demonstration page uses our WeatherBlox Daily Observations layout. Learn more.

Left ArrowRight Arrow

Hourly Observations for July 24, 2020

Temp ( °F °C ) Dew Point ( °F °C ) Humidity (%) Winds ( mph kmh ) Pressure ( in mb ) Visibility ( mi km ) Precip ( " mm )
12:53 am 00:53 Clear 76 24.4 70 21.1 82 82 S 10 17 29.98 1015 10 16 0.00 0.00
1:53 am 01:53 Clear 76 24.4 69 20.6 79 79 S 7 11 29.97 1015 10 16 0.00 0.00
2:53 am 02:53 Clear 76 24.4 69 20.6 79 79 S 8 13 29.98 1015 10 16 0.00 0.00
3:53 am 03:53 Clear 76 24.4 69 20.6 79 79 S 10 17 29.97 1015 10 16 0.00 0.00
4:53 am 04:53 Clear 75 23.9 69 20.6 82 82 S 8 13 29.96 1015 10 16 0.00 0.00
5:53 am 05:53 Clear 75 23.9 70 21.1 84 84 S 9 15 29.96 1015 10 16 0.00 0.00
6:53 am 06:53 Sunny 75 23.9 71 21.7 88 88 S 8 13 29.97 1015 10 16 0.00 0.00
7:53 am 07:53 Sunny 78 25.6 71 21.7 79 79 SSE 12 19 29.96 1015 10 16 0.00 0.00
8:53 am 08:53 Sunny 79 26.1 71 21.7 77 77 S 9 15 29.98 1015 10 16 0.00 0.00
9:53 am 09:53 Sunny 82 27.8 72 22.2 72 72 S 13 20 29.98 1015 10 16 0.00 0.00
10:53 am 10:53 Sunny 86 30 72 22.2 63 63 S 13 20 29.97 1015 10 16 0.00 0.00
11:53 am 11:53 Sunny 89 31.7 73 22.8 59 59 S 16 26 29.96 1015 10 16 0.00 0.00
12:53 pm 12:53 Mostly Sunny 91 32.8 74 23.3 57 57 S 16 26 29.96 1014 10 16 0.00 0.00
1:53 pm 13:53 Partly Cloudy 91 32.8 73 22.8 56 56 S 16 26 29.93 1014 10 16 0.00 0.00
2:53 pm 14:53 Partly Cloudy 92 33.3 72 22.2 52 52 SSE 17 28 29.93 1014 10 16 0.00 0.00
3:53 pm 15:53 Mostly Sunny 92 33.3 71 21.7 51 51 S 21 33 29.92 1013 10 16 0.00 0.00
4:53 pm 16:53 Sunny 91 32.8 71 21.7 52 52 S 15 24 29.91 1013 10 16 0.00 0.00
5:53 pm 17:53 Mostly Sunny 91 32.8 71 21.7 52 52 S 20 31 29.90 1013 10 16 0.00 0.00
6:53 pm 18:53 Sunny 90 32.2 71 21.7 54 54 S 16 26 29.87 1012 10 16 0.00 0.00
7:53 pm 19:53 Sunny 87 30.6 71 21.7 59 59 S 17 28 29.87 1012 10 16 0.00 0.00
8:53 pm 20:53 Sunny 84 28.9 71 21.7 65 65 SSE 12 19 29.86 1011 10 16 0.00 0.00
9:53 pm 21:53 Clear 82 27.8 71 21.7 69 69 SSE 10 17 29.90 1013 10 16 0.00 0.00
10:53 pm 22:53 Clear 80 26.7 72 22.2 76 76 SSE 9 15 29.93 1014 10 16 0.00 0.00
11:53 pm 23:53 Clear 79 26.1 71 21.7 77 77 SSE 14 22 29.92 1013 10 16 0.00 0.00

Powered by AerisWeather